Time,TemperatureF,DewpointF,PressureIn,WindDirection,WindDirectionDegrees,WindSpeedMPH,WindSpeedGustMPH,Humidity,HourlyPrecipIn,Conditions,Clouds,dailyrainin,SoftwareType,DateUTC
2013-05-29 00:00:00,73.3,13.4,29.50,West,279,2.0,4.0,10,0.00,,,0.00,Wunderground v.1.15,2013-05-29 06:00:00,
2013-05-29 00:10:00,72.8,13.0,29.50,West,279,1.0,1.0,10,0.00,,,0.00,Wunderground v.1.15,2013-05-29 06:10:00,
2013-05-29 00:20:00,72.4,14.9,29.50,WSW,247,2.0,8.0,11,0.00,,,0.00,Wunderground v.1.15,2013-05-29 06:20:00,
2013-05-29 00:30:00,72.3,14.8,29.50,WSW,242,2.0,6.0,11,0.00,,,0.00,Wunderground v.1.15,2013-05-29 06:30:00,
2013-05-29 00:40:00,72.2,14.7,29.51,WSW,243,3.0,3.0,11,0.00,,,0.00,Wunderground v.1.15,2013-05-29 06:40:00,
2013-05-29 00:50:00,71.7,14.3,29.51,WSW,243,1.0,1.0,11,0.00,,,0.00,Wunderground v.1.15,2013-05-29 06:50:00,
2013-05-29 01:00:00,71.2,15.9,29.51,WSW,243,0.0,3.0,12,0.00,,,0.00,Wunderground v.1.15,2013-05-29 07:00:00,
2013-05-29 01:10:00,71.3,17.9,29.51,WSW,243,2.0,9.0,13,0.00,,,0.00,Wunderground v.1.15,2013-05-29 07:10:00,
2013-05-29 01:20:00,71.2,17.8,29.51,SSW,209,4.0,4.0,13,0.00,,,0.00,Wunderground v.1.15,2013-05-29 07:20:00,
2013-05-29 01:30:00,70.7,19.1,29.51,SSW,211,2.0,2.0,14,0.00,,,0.00,Wunderground v.1.15,2013-05-29 07:30:00,
2013-05-29 01:40:00,70.1,18.6,29.51,SW,219,2.0,9.0,14,0.00,,,0.00,Wunderground v.1.15,2013-05-29 07:40:00,
2013-05-29 01:50:00,69.8,18.4,29.51,SW,220,4.0,4.0,14,0.00,,,0.00,Wunderground v.1.15,2013-05-29 07:50:00,
2013-05-29 02:00:00,69.3,19.6,29.51,SW,220,3.0,9.0,15,0.00,,,0.00,Wunderground v.1.15,2013-05-29 08:00:00,
2013-05-29 02:10:00,68.8,20.7,29.51,SW,227,3.0,3.0,16,0.00,,,0.00,Wunderground v.1.15,2013-05-29 08:10:00,
2013-05-29 02:20:00,68.2,20.2,29.51,SW,227,1.0,9.0,16,0.00,,,0.00,Wunderground v.1.15,2013-05-29 08:20:00,
2013-05-29 02:30:00,67.6,21.2,29.51,SW,227,1.0,1.0,17,0.00,,,0.00,Wunderground v.1.15,2013-05-29 08:30:00,
2013-05-29 02:40:00,67.3,22.3,29.51,SW,227,1.0,9.0,18,0.00,,,0.00,Wunderground v.1.15,2013-05-29 08:40:00,
2013-05-29 02:50:00,67.9,25.3,29.51,SW,235,4.0,4.0,20,0.00,,,0.00,Wunderground v.1.15,2013-05-29 08:50:00,
2013-05-29 03:00:00,68.1,26.7,29.50,West,259,3.0,9.0,21,0.00,,,0.00,Wunderground v.1.15,2013-05-29 09:00:00,
2013-05-29 03:10:00,68.1,26.7,29.50,WSW,252,3.0,3.0,21,0.00,,,0.00,Wunderground v.1.15,2013-05-29 09:10:00,
2013-05-29 03:20:00,67.7,26.3,29.50,WSW,257,3.0,3.0,21,0.00,,,0.00,Wunderground v.1.15,2013-05-29 09:20:00,
2013-05-29 03:30:00,67.6,26.2,29.50,West,274,2.0,2.0,21,0.00,,,0.00,Wunderground v.1.15,2013-05-29 09:30:00,
2013-05-29 03:40:00,67.1,25.8,29.50,West,274,1.0,1.0,21,0.00,,,0.00,Wunderground v.1.15,2013-05-29 09:40:00,
2013-05-29 03:50:00,66.7,26.6,29.51,West,274,1.0,9.0,22,0.00,,,0.00,Wunderground v.1.15,2013-05-29 09:50:00,
2013-05-29 04:00:00,66.2,26.2,29.51,West,274,1.0,9.0,22,0.00,,,0.00,Wunderground v.1.15,2013-05-29 10:00:00,
2013-05-29 04:10:00,65.9,27.0,29.51,West,274,0.0,9.0,23,0.00,,,0.00,Wunderground v.1.15,2013-05-29 10:10:00,
2013-05-29 04:20:00,65.3,26.5,29.51,West,274,1.0,9.0,23,0.00,,,0.00,Wunderground v.1.15,2013-05-29 10:20:00,
2013-05-29 04:30:00,64.7,27.0,29.51,West,274,0.0,9.0,24,0.00,,,0.00,Wunderground v.1.15,2013-05-29 10:30:00,
2013-05-29 04:40:00,64.2,27.6,29.51,West,274,2.0,2.0,25,0.00,,,0.00,Wunderground v.1.15,2013-05-29 10:40:00,
2013-05-29 04:50:00,63.7,28.1,29.51,WNW,288,1.0,9.0,26,0.00,,,0.00,Wunderground v.1.15,2013-05-29 10:50:00,
2013-05-29 05:00:00,63.3,29.6,29.51,NW,304,2.0,9.0,28,0.00,,,0.00,Wunderground v.1.15,2013-05-29 11:00:00,
2013-05-29 05:10:00,63.1,31.1,29.51,NW,317,4.0,9.0,30,0.00,,,0.00,Wunderground v.1.15,2013-05-29 11:10:00,
2013-05-29 05:20:00,62.8,31.7,29.51,NNW,328,4.0,4.0,31,0.00,,,0.00,Wunderground v.1.15,2013-05-29 11:20:00,
2013-05-29 05:30:00,62.4,32.1,29.52,NNW,327,2.0,2.0,32,0.00,,,0.00,Wunderground v.1.15,2013-05-29 11:30:00,
2013-05-29 05:40:00,62.0,32.5,29.52,NNW,327,1.0,1.0,33,0.00,,,0.00,Wunderground v.1.15,2013-05-29 11:40:00,
2013-05-29 05:50:00,61.9,33.9,29.52,NNW,331,1.0,9.0,35,0.00,,,0.00,Wunderground v.1.15,2013-05-29 11:50:00,
2013-05-29 06:00:00,61.8,33.8,29.52,NNW,332,1.0,9.0,35,0.00,,,0.00,Wunderground v.1.15,2013-05-29 12:00:00,
2013-05-29 06:10:00,61.7,33.7,29.52,NNW,332,1.0,1.0,35,0.00,,,0.00,Wunderground v.1.15,2013-05-29 12:10:00,
2013-05-29 06:20:00,61.5,34.3,29.52,NNW,332,0.0,9.0,36,0.00,,,0.00,Wunderground v.1.15,2013-05-29 12:20:00,
2013-05-29 06:30:00,61.6,34.4,29.52,NNW,332,0.0,9.0,36,0.00,,,0.00,Wunderground v.1.15,2013-05-29 12:30:00,
2013-05-29 06:40:00,62.0,35.4,29.52,NNW,332,0.0,9.0,37,0.00,,,0.00,Wunderground v.1.15,2013-05-29 12:40:00,
2013-05-29 06:50:00,62.7,36.0,29.52,NNW,332,0.0,9.0,37,0.00,,,0.00,Wunderground v.1.15,2013-05-29 12:50:00,
2013-05-29 07:00:00,63.4,36.0,29.51,NNW,332,1.0,9.0,36,0.00,,,0.00,Wunderground v.1.15,2013-05-29 13:00:00,
2013-05-29 07:10:00,63.9,36.4,29.51,NNW,346,2.0,9.0,36,0.00,,,0.00,Wunderground v.1.15,2013-05-29 13:10:00,
2013-05-29 07:20:00,64.4,36.8,29.51,NNW,346,2.0,9.0,36,0.00,,,0.00,Wunderground v.1.15,2013-05-29 13:20:00,
2013-05-29 07:30:00,64.9,36.6,29.51,North,350,2.0,2.0,35,0.00,,,0.00,Wunderground v.1.15,2013-05-29 13:30:00,
2013-05-29 07:40:00,65.3,36.9,29.51,North,350,1.0,1.0,35,0.00,,,0.00,Wunderground v.1.15,2013-05-29 13:40:00,
2013-05-29 07:50:00,65.6,36.5,29.51,NNW,347,1.0,1.0,34,0.00,,,0.00,Wunderground v.1.15,2013-05-29 13:50:00,
2013-05-29 08:00:00,66.4,37.2,29.51,NNW,341,1.0,9.0,34,0.00,,,0.00,Wunderground v.1.15,2013-05-29 14:00:00,
2013-05-29 08:10:00,66.9,37.6,29.51,NNW,341,1.0,9.0,34,0.00,,,0.00,Wunderground v.1.15,2013-05-29 14:10:00,
2013-05-29 08:20:00,67.4,38.0,29.51,NW,323,1.0,9.0,34,0.00,,,0.00,Wunderground v.1.15,2013-05-29 14:20:00,
2013-05-29 08:30:00,67.5,38.1,29.51,NW,323,2.0,2.0,34,0.00,,,0.00,Wunderground v.1.15,2013-05-29 14:30:00,
2013-05-29 08:40:00,67.8,37.6,29.51,NW,323,2.0,2.0,33,0.00,,,0.00,Wunderground v.1.15,2013-05-29 14:40:00,
2013-05-29 08:50:00,67.9,37.7,29.51,NW,323,1.0,1.0,33,0.00,,,0.00,Wunderground v.1.15,2013-05-29 14:50:00,
2013-05-29 09:00:00,68.9,37.0,29.51,NW,323,1.0,1.0,31,0.00,,,0.00,Wunderground v.1.15,2013-05-29 15:00:00,
2013-05-29 09:10:00,68.4,36.6,29.51,NW,323,1.0,9.0,31,0.00,,,0.00,Wunderground v.1.15,2013-05-29 15:10:00,
2013-05-29 09:20:00,68.8,36.9,29.51,West,279,2.0,2.0,31,0.00,,,0.00,Wunderground v.1.15,2013-05-29 15:20:00,
2013-05-29 09:30:00,69.4,36.6,29.51,WSW,246,2.0,9.0,30,0.00,,,0.00,Wunderground v.1.15,2013-05-29 15:30:00,
2013-05-29 09:40:00,68.6,35.9,29.51,South,190,3.0,9.0,30,0.00,,,0.00,Wunderground v.1.15,2013-05-29 15:40:00,
2013-05-29 09:50:00,69.2,36.4,29.50,South,187,3.0,9.0,30,0.00,,,0.00,Wunderground v.1.15,2013-05-29 15:50:00,
2013-05-29 10:00:00,69.1,35.5,29.51,SSW,197,6.0,9.0,29,0.00,,,0.00,Wunderground v.1.15,2013-05-29 16:00:00,
2013-05-29 10:10:00,69.3,34.8,29.50,SW,223,4.0,9.0,28,0.00,,,0.00,Wunderground v.1.15,2013-05-29 16:10:00,
2013-05-29 10:20:00,70.2,34.6,29.50,SSW,205,4.0,4.0,27,0.00,,,0.00,Wunderground v.1.15,2013-05-29 16:20:00,
2013-05-29 10:30:00,70.8,35.1,29.50,SW,226,3.0,3.0,27,0.00,,,0.00,Wunderground v.1.15,2013-05-29 16:30:00,
2013-05-29 10:40:00,71.7,35.0,29.49,SW,233,2.0,9.0,26,0.00,,,0.00,Wunderground v.1.15,2013-05-29 16:40:00,
2013-05-29 10:50:00,72.8,33.9,29.50,WSW,241,7.0,7.0,24,0.00,,,0.00,Wunderground v.1.15,2013-05-29 16:50:00,
2013-05-29 11:00:00,72.5,33.6,29.50,WSW,238,6.0,9.0,24,0.00,,,0.00,Wunderground v.1.15,2013-05-29 17:00:00,
2013-05-29 11:10:00,73.5,33.4,29.49,North,355,3.0,9.0,23,0.00,,,0.00,Wunderground v.1.15,2013-05-29 17:10:00,
2013-05-29 11:20:00,73.8,32.6,29.49,NW,313,7.0,7.0,22,0.00,,,0.00,Wunderground v.1.15,2013-05-29 17:20:00,
2013-05-29 11:30:00,74.9,33.5,29.49,NW,313,5.0,9.0,22,0.00,,,0.00,Wunderground v.1.15,2013-05-29 17:30:00,
2013-05-29 11:40:00,74.3,31.8,29.49,West,259,4.0,9.0,21,0.00,,,0.00,Wunderground v.1.15,2013-05-29 17:40:00,
2013-05-29 11:50:00,75.4,32.7,29.49,SW,234,4.0,9.0,21,0.00,,,0.00,Wunderground v.1.15,2013-05-29 17:50:00,
2013-05-29 12:00:00,75.3,31.4,29.48,West,273,6.0,6.0,20,0.00,,,0.00,Wunderground v.1.15,2013-05-29 18:00:00,
2013-05-29 12:10:00,76.2,29.6,29.49,SW,235,5.0,15.0,18,0.00,,,0.00,Wunderground v.1.15,2013-05-29 18:10:00,
2013-05-29 12:20:00,76.4,26.9,29.49,WSW,254,5.0,9.0,16,0.00,,,0.00,Wunderground v.1.15,2013-05-29 18:20:00,
2013-05-29 12:30:00,75.9,26.5,29.49,WSW,241,6.0,6.0,16,0.00,,,0.00,Wunderground v.1.15,2013-05-29 18:30:00,
2013-05-29 12:40:00,76.2,25.1,29.49,WNW,284,5.0,5.0,15,0.00,,,0.00,Wunderground v.1.15,2013-05-29 18:40:00,
2013-05-29 12:50:00,77.1,24.2,29.48,West,273,5.0,9.0,14,0.00,,,0.00,Wunderground v.1.15,2013-05-29 18:50:00,
2013-05-29 13:00:00,78.0,21.2,29.48,SW,221,6.0,9.0,12,0.00,,,0.00,Wunderground v.1.15,2013-05-29 19:00:00,
2013-05-29 13:10:00,77.5,18.8,29.47,West,269,8.0,8.0,11,0.00,,,0.00,Wunderground v.1.15,2013-05-29 19:10:00,
2013-05-29 13:20:00,78.6,19.7,29.47,West,271,7.0,13.0,11,0.00,,,0.00,Wunderground v.1.15,2013-05-29 19:20:00,
2013-05-29 13:30:00,79.4,20.3,29.47,NW,312,7.0,7.0,11,0.00,,,0.00,Wunderground v.1.15,2013-05-29 19:30:00,
2013-05-29 13:40:00,78.4,19.5,29.47,NW,319,8.0,8.0,11,0.00,,,0.00,Wunderground v.1.15,2013-05-29 19:40:00,
2013-05-29 13:50:00,79.2,20.1,29.47,WSW,244,5.0,9.0,11,0.00,,,0.00,Wunderground v.1.15,2013-05-29 19:50:00,
2013-05-29 14:00:00,79.6,20.4,29.46,WNW,289,7.0,7.0,11,0.00,,,0.00,Wunderground v.1.15,2013-05-29 20:00:00,
2013-05-29 14:10:00,80.1,20.8,29.46,SW,217,4.0,4.0,11,0.00,,,0.00,Wunderground v.1.15,2013-05-29 20:10:00,
2013-05-29 14:20:00,80.2,20.9,29.45,WSW,257,4.0,9.0,11,0.00,,,0.00,Wunderground v.1.15,2013-05-29 20:20:00,
2013-05-29 14:30:00,80.3,21.0,29.45,WNW,286,3.0,3.0,11,0.00,,,0.00,Wunderground v.1.15,2013-05-29 20:30:00,
2013-05-29 14:40:00,80.1,20.8,29.44,WNW,290,5.0,11.0,11,0.00,,,0.00,Wunderground v.1.15,2013-05-29 20:40:00,
2013-05-29 14:50:00,80.0,20.7,29.44,WSW,249,7.0,10.0,11,0.00,,,0.00,Wunderground v.1.15,2013-05-29 20:50:00,
2013-05-29 15:00:00,81.1,19.3,29.43,WNW,285,5.0,5.0,10,0.00,,,0.00,Wunderground v.1.15,2013-05-29 21:00:00,
2013-05-29 15:10:00,80.9,19.2,29.44,WSW,246,6.0,6.0,10,0.00,,,0.00,Wunderground v.1.15,2013-05-29 21:10:00,
2013-05-29 15:20:00,79.4,18.0,29.43,WNW,300,6.0,6.0,10,0.00,,,0.00,Wunderground v.1.15,2013-05-29 21:20:00,
2013-05-29 15:30:00,80.2,18.7,29.43,WNW,284,4.0,4.0,10,0.00,,,0.00,Wunderground v.1.15,2013-05-29 21:30:00,
2013-05-29 15:40:00,79.6,20.4,29.43,NNW,338,6.0,9.0,11,0.00,,,0.00,Wunderground v.1.15,2013-05-29 21:40:00,
2013-05-29 15:50:00,81.5,19.6,29.42,WSW,258,4.0,4.0,10,0.00,,,0.00,Wunderground v.1.15,2013-05-29 21:50:00,
2013-05-29 16:00:00,80.9,19.2,29.42,SW,235,8.0,9.0,10,0.00,,,0.00,Wunderground v.1.15,2013-05-29 22:00:00,
2013-05-29 16:10:00,81.2,17.0,29.42,WSW,252,8.0,8.0,9,0.00,,,0.00,Wunderground v.1.15,2013-05-29 22:10:00,
2013-05-29 16:20:00,81.2,17.0,29.41,SSW,207,9.0,9.0,9,0.00,,,0.00,Wunderground v.1.15,2013-05-29 22:20:00,
2013-05-29 16:30:00,81.4,17.1,29.41,WSW,238,10.0,10.0,9,0.00,,,0.00,Wunderground v.1.15,2013-05-29 22:30:00,
2013-05-29 16:40:00,81.2,14.2,29.41,SSW,206,12.0,12.0,8,0.00,,,0.00,Wunderground v.1.15,2013-05-29 22:40:00,
2013-05-29 16:50:00,81.2,14.2,29.40,SW,236,11.0,14.0,8,0.00,,,0.00,Wunderground v.1.15,2013-05-29 22:50:00,
2013-05-29 17:00:00,82.1,14.9,29.41,WSW,248,11.0,11.0,8,0.00,,,0.00,Wunderground v.1.15,2013-05-29 23:00:00,
2013-05-29 17:10:00,81.8,11.7,29.40,WSW,237,10.0,10.0,7,0.00,,,0.00,Wunderground v.1.15,2013-05-29 23:10:00,
2013-05-29 17:20:00,81.8,11.7,29.40,WSW,244,11.0,11.0,7,0.00,,,0.00,Wunderground v.1.15,2013-05-29 23:20:00,
2013-05-29 17:30:00,81.7,8.1,29.40,West,271,10.0,16.0,6,0.00,,,0.00,Wunderground v.1.15,2013-05-29 23:30:00,
2013-05-29 17:40:00,81.4,7.9,29.40,SW,223,12.0,12.0,6,0.00,,,0.00,Wunderground v.1.15,2013-05-29 23:40:00,
2013-05-29 17:50:00,81.2,7.8,29.40,West,266,11.0,11.0,6,0.00,,,0.00,Wunderground v.1.15,2013-05-29 23:50:00,
2013-05-29 18:00:00,81.5,8.0,29.40,WSW,250,10.0,10.0,6,0.00,,,0.00,Wunderground v.1.15,2013-05-30 00:00:00,
2013-05-29 18:10:00,81.4,3.9,29.41,WSW,247,11.0,11.0,5,0.00,,,0.00,Wunderground v.1.15,2013-05-30 00:10:00,
2013-05-29 18:20:00,80.9,3.6,29.41,West,263,9.0,9.0,5,0.00,,,0.00,Wunderground v.1.15,2013-05-30 00:20:00,
2013-05-29 18:30:00,80.7,-1.4,29.41,SW,223,11.0,11.0,4,0.00,,,0.00,Wunderground v.1.15,2013-05-30 00:30:00,
2013-05-29 18:40:00,80.6,3.3,29.41,WSW,240,8.0,9.0,5,0.00,,,0.00,Wunderground v.1.15,2013-05-30 00:40:00,
2013-05-29 18:50:00,80.2,3.1,29.42,West,269,8.0,9.0,5,0.00,,,0.00,Wunderground v.1.15,2013-05-30 00:50:00,
2013-05-29 19:00:00,79.9,6.8,29.42,SW,234,8.0,8.0,6,0.00,,,0.00,Wunderground v.1.15,2013-05-30 01:00:00,
2013-05-29 19:10:00,79.4,6.5,29.42,West,271,10.0,10.0,6,0.00,,,0.00,Wunderground v.1.15,2013-05-30 01:10:00,
2013-05-29 19:20:00,78.8,9.5,29.41,WNW,293,8.0,8.0,7,0.00,,,0.00,Wunderground v.1.15,2013-05-30 01:20:00,
2013-05-29 19:30:00,78.3,9.1,29.42,NW,322,7.0,9.0,7,0.00,,,0.00,Wunderground v.1.15,2013-05-30 01:30:00,
2013-05-29 19:40:00,78.2,12.0,29.42,West,259,9.0,9.0,8,0.00,,,0.00,Wunderground v.1.15,2013-05-30 01:40:00,
2013-05-29 19:50:00,78.0,14.5,29.43,WSW,248,8.0,8.0,9,0.00,,,0.00,Wunderground v.1.15,2013-05-30 01:50:00,
2013-05-29 20:00:00,77.6,14.2,29.42,WNW,286,7.0,7.0,9,0.00,,,0.00,Wunderground v.1.15,2013-05-30 02:00:00,
2013-05-29 20:10:00,77.4,14.1,29.43,West,269,7.0,7.0,9,0.00,,,0.00,Wunderground v.1.15,2013-05-30 02:10:00,
2013-05-29 20:20:00,77.0,16.2,29.43,WSW,257,5.0,9.0,10,0.00,,,0.00,Wunderground v.1.15,2013-05-30 02:20:00,
2013-05-29 20:30:00,76.6,18.1,29.43,WSW,250,6.0,9.0,11,0.00,,,0.00,Wunderground v.1.15,2013-05-30 02:30:00,
2013-05-29 20:40:00,76.3,17.9,29.44,West,270,6.0,10.0,11,0.00,,,0.00,Wunderground v.1.15,2013-05-30 02:40:00,
2013-05-29 20:50:00,76.1,17.7,29.44,West,281,4.0,9.0,11,0.00,,,0.00,Wunderground v.1.15,2013-05-30 02:50:00,
2013-05-29 21:00:00,75.9,17.6,29.45,WNW,289,3.0,3.0,11,0.00,,,0.00,Wunderground v.1.15,2013-05-30 03:00:00,
2013-05-29 21:10:00,75.6,19.4,29.46,NW,318,3.0,9.0,12,0.00,,,0.00,Wunderground v.1.15,2013-05-30 03:10:00,
2013-05-29 21:20:00,75.1,12.4,29.47,NW,309,6.0,6.0,9,0.00,,,0.00,Wunderground v.1.15,2013-05-30 03:20:00,
2013-05-29 21:30:00,74.7,9.4,29.48,NW,304,4.0,9.0,8,0.00,,,0.00,Wunderground v.1.15,2013-05-30 03:30:00,
2013-05-29 21:40:00,74.0,11.5,29.48,NW,318,5.0,9.0,9,0.00,,,0.00,Wunderground v.1.15,2013-05-30 03:40:00,
2013-05-29 21:50:00,74.0,11.5,29.49,NW,320,3.0,3.0,9,0.00,,,0.00,Wunderground v.1.15,2013-05-30 03:50:00,
2013-05-29 22:00:00,73.5,11.1,29.49,NW,320,3.0,3.0,9,0.00,,,0.00,Wunderground v.1.15,2013-05-30 04:00:00,
2013-05-29 22:10:00,73.0,13.1,29.50,NW,316,1.0,9.0,10,0.00,,,0.00,Wunderground v.1.15,2013-05-30 04:10:00,
2013-05-29 22:30:00,72.3,12.6,29.51,NW,313,3.0,9.0,10,0.00,,,0.00,Wunderground v.1.15,2013-05-30 04:30:00,
2013-05-29 22:40:00,72.1,12.5,29.52,NW,311,7.0,9.0,10,0.00,,,0.00,Wunderground v.1.15,2013-05-30 04:40:00,
2013-05-29 22:50:00,72.1,12.5,29.52,NW,316,7.0,9.0,10,0.00,,,0.00,Wunderground v.1.15,2013-05-30 04:50:00,
2013-05-29 23:00:00,71.5,14.2,29.53,NW,313,6.0,6.0,11,0.00,,,0.00,Wunderground v.1.15,2013-05-30 05:00:00,
2013-05-29 23:10:00,71.2,13.9,29.53,NNW,330,5.0,5.0,11,0.00,,,0.00,Wunderground v.1.15,2013-05-30 05:10:00,
2013-05-29 23:20:00,70.4,15.3,29.54,NW,326,6.0,6.0,12,0.00,,,0.00,Wunderground v.1.15,2013-05-30 05:20:00,
2013-05-29 23:30:00,70.2,15.1,29.53,NW,320,4.0,9.0,12,0.00,,,0.00,Wunderground v.1.15,2013-05-30 05:30:00,
2013-05-29 23:40:00,69.5,16.4,29.54,NW,321,4.0,9.0,13,0.00,,,0.00,Wunderground v.1.15,2013-05-30 05:40:00,
2013-05-29 23:50:00,69.3,16.3,29.54,NW,325,3.0,9.0,13,0.00,,,0.00,Wunderground v.1.15,2013-05-30 05:50:00,